Location: Vancouver
(49.2500°N, 123.1330°W)
Time: 14:54:33
(UTC-07:00)

ERS-2 - Visible Passes

Search period start: 29 June 2016 00:00
Search period end: 09 July 2016 00:00
Orbit: 505 x 512 km, 98.5° (Epoch: 28 June)

Date Brightness Start Highest point End Pass type
(mag) Time Alt. Az. Time Alt. Az. Time Alt. Az.
29 Jun 4.0 02:31:58 10° NE 02:35:01 23° E 02:37:23 13° SE visible
29 Jun 3.3 04:05:32 10° N 04:08:52 31° WNW 04:12:11 10° SW visible
30 Jun 4.5 02:15:30 10° NE 02:17:49 16° E 02:20:06 10° SE visible
30 Jun 2.6 03:48:17 10° N 03:51:53 48° WNW 03:54:58 13° SW visible
01 Jul 5.0 02:00:22 10° E 02:00:33 10° E 02:00:43 10° E visible
01 Jul 2.1 03:31:07 10° NNE 03:34:51 77° WNW 03:37:42 16° SSW visible
02 Jul 2.4 03:14:03 10° NNE 03:17:47 67° ESE 03:20:25 18° S visible
03 Jul 3.1 02:57:06 10° NNE 03:00:39 41° E 03:03:08 17° SSE visible
03 Jul 4.0 04:31:31 10° NNW 04:34:13 19° WNW 04:36:53 10° WSW visible
04 Jul 3.8 02:40:17 10° NE 02:43:29 27° E 02:45:51 15° SSE visible
04 Jul 3.5 04:14:03 10° N 04:17:16 28° WNW 04:20:28 10° SW visible
05 Jul 4.4 02:23:41 10° NE 02:26:17 18° E 02:28:34 11° SE visible
05 Jul 2.9 03:56:45 10° N 04:00:17 42° WNW 04:03:24 12° SW visible
06 Jul 4.8 02:07:39 10° ENE 02:09:02 12° E 02:10:24 10° ESE visible
06 Jul 2.3 03:39:33 10° N 03:43:15 66° WNW 03:46:07 16° SSW visible
07 Jul 2.2 03:22:26 10° NNE 03:26:11 78° ESE 03:28:49 18° S visible
08 Jul 2.8 03:05:25 10° NNE 03:09:03 48° E 03:11:30 19° S visible
